Regional Weather Roundup
Issued by NWS

Home | Current Version | Previous Version | Graphics & Text | Print | Product List | Glossary On
Versions: 1 2 3 4 5 6 7 8 9 10 11 12 13 14 15 16 17 18 19 20 21 22 23 24 25 26 27 28 29 30 31 32 33 34 35 36 37 38 39 40 41 42 43 44 45 46 47 48 49 50
000
ASUS43 KTOP 270408
RWRKS

WEATHER ROUNDUP FOR KANSAS
NATIONAL WEATHER SERVICE GOODLAND KS
1100 PM CDT MON JUN 26 2017

NOTE:  "FAIR" INDICATES FEW OR NO CLOUDS BELOW 12,000 FEET WITH NO
SIGNIFICANT WEATHER AND/OR OBSTRUCTIONS TO VISIBILITY.

KSZ001>006-013>018-027>032-041>047-270500-
NORTHWEST KANSAS

CITY           SKY/WX    TMP DP  RH WIND       PRES   REMARKS
GOODLAND       CLEAR     64  61  90 E7        30.12R
HAYS           CLEAR     68  61  78 E14       30.09R
HILL CITY      CLEAR     67  59  75 E8        30.11R
RUSSELL        CLEAR     67  60  78 E15       30.08R
$$

KSZ061>065-074>080-084>089-270500-
SOUTHWEST KANSAS

CITY           SKY/WX    TMP DP  RH WIND       PRES   REMARKS
DODGE CITY     CLOUDY    73  63  70 SE5       30.07R
ELKHART          N/A     69  52  54 SE10        N/A
GARDEN CITY    MOCLDY    73  60  63 NE9       30.08R
GREAT BEND     CLEAR     70  60  70 E13       30.08R
LIBERAL        CLOUDY    74  63  68 SE7       30.05F
PRATT          MOCLDY    73  59  61 E3        30.05
$$

KSZ066>073-081>083-090>101-270500-
SOUTHEAST KANSAS

CITY           SKY/WX    TMP DP  RH WIND       PRES   REMARKS
CHANUTE        RAIN      66  62  87 E6        30.12R
COFFEYVILLE    CLOUDY    71  65  81 NE3       30.07R
HUTCHINSON     PTCLDY    70  62  76 SE16G22   30.06R
MEDICINE LODGE   N/A     77  61  57 SE6       30.03R
NEWTON         PTCLDY    64  63  96 E12       30.09R
PARSONS        RAIN      70  64  81 NE7G16    30.12R
WICHITA INTL   CLOUDY    68  64  87 E13       30.06R
WICHITA JABRA  CLEAR     65  63  93 SE8       30.08R
WICHITA MCCONL PTCLDY    67  62  83 SE12      30.07R
WINFIELD       LGT RAIN  68  66  93 E8        30.08S
$$

KSZ007>012-019>026-033>040-048>060-102>105-270500-
NORTHEAST KANSAS

CITY           SKY/WX    TMP DP  RH WIND       PRES   REMARKS
CONCORDIA      CLEAR     63  61  93 E6        30.11R
EMPORIA        PTCLDY    63  60  90 SE6       30.11R
LAWRENCE       CLEAR     58  58 100 E3        30.13R FOG
MANHATTAN      PTCLDY    64  61  90 E8        30.11R
MARYSVILLE     CLEAR     61  59  94 E3        30.13R
OLATHE IND     CLEAR     62  57  83 SE6       30.13R
OLATHE EXE     CLEAR     60  59  96 S3        30.13R
SALINA         CLEAR     69  62  78 E9        30.10R
TOPEKA BILLARD CLEAR     62  62 100 CALM      30.12R
TOPEKA FORBES  MOCLDY    63  61  93 SE3       30.12R
$$



USA.gov is the U.S. government's official web portal to all federal, state and local government web resources and services.